Regional Weather Roundup
Issued by NWS

Home | Current Version | Previous Version | Graphics & Text | Print | Product List | Glossary On
Versions: 1 2 3 4 5 6 7 8 9 10 11 12 13 14 15 16 17 18 19 20 21 22 23 24 25 26 27 28 29 30 31 32 33 34 35 36 37 38 39 40 41 42 43 44 45 46 47 48 49 50
000
ASUS45 KBOU 240307
RWRCO

WEATHER ROUNDUP FOR COLORADO
NATIONAL WEATHER SERVICE DENVER/BOULDER CO
900 PM MDT SAT JUL 23 2016

NOTE: "FAIR" INDICATES FEW OR NO CLOUDS BELOW 12000 FEET WITH NO
SIGNIFICANT WEATHER AND/OR OBSTRUCTIONS TO VISIBILITY.

COZ001>005-013-030-031-240400-
...NORTHWEST COLORADO...

CITY           SKY/WX    TMP DP  RH WIND       PRES   REMARKS
CRAIG          FAIR      79  35  20 SW15G23   30.14R
HAYDEN         FAIR      75  37  25 W3        30.18R
MEEKER         FAIR      76  39  26 SE7       30.17F
MOUNT WERNER   NOT AVBL
STEAMBOAT SPGS FAIR      71  43  36 CALM      30.21R
WALDEN         FAIR      66  37  34 CALM      30.34R
$$

COZ006>008-011-240400-
...WEST CENTRAL VALLEYS...

CITY           SKY/WX    TMP DP  RH WIND       PRES   REMARKS
GRAND JUNCTION FAIR      88  43  20 NW3       29.99R
MONTROSE       FAIR      80  46  30 S7        30.10S
EAGLE          FAIR      77  43  29 NW6       30.21R
RIFLE          FAIR      82  39  21 CALM      30.10R
DELTA          FAIR      85  45  25 N3        30.04R
NUCLA          FAIR      81  32  17 S6        30.16R
$$

COZ017>023-064>068-240400-
...SOUTHWEST COLORADO...

CITY           SKY/WX    TMP DP  RH WIND       PRES   REMARKS
DURANGO        FAIR      73  45  36 CALM      30.20R
CORTEZ         FAIR      76  45  33 E5        30.12R
PAGOSA SPRINGS FAIR      74  35  23 CALM      30.30R
TELLURIDE      FAIR      68  36  30 CALM      30.43S
WOLF CREEK PAS FAIR      54  34  47 N9        30.69S
$$

COZ009-010-012-014-032>034-037-058>063-240400-
...CENTRAL COLORADO...

CITY           SKY/WX    TMP DP  RH WIND       PRES   REMARKS
ASPEN          FAIR      67  46  47 SW8       30.29R
BUENA VISTA    FAIR      66  43  44 CALM      30.33R
COPPER MTN     FAIR      59  32  36 W9        30.68S
BERTHOUD PASS  FAIR      48  34  57 N14       30.70S
COTTONWOOD PAS FAIR      68  32  26 CALM      30.49R
GUNNISON       FAIR      68  46  45 NW6       30.32R
KREMMLING      FAIR      61  50  67 CALM      30.29S
LEADVILLE      FAIR      60  34  37 NE6       30.48S
MONARCH PASS   FAIR      55  34  44 MISG      30.77S
SALIDA         FAIR      73  43  35 W8        30.36R
SUNLIGHT       FAIR      64  34  32 CALM      30.59S
WILKERSON PASS MOCLDY    55  36  47 S3        30.65R
$$

COZ069>075-240400-
...SAN LUIS VALLEY/SANGRE DE CRISTO MOUNTAINS...

CITY           SKY/WX    TMP DP  RH WIND       PRES   REMARKS
ALAMOSA        FAIR      70  41  34 N6        30.27R
LA VETA PASS   FAIR      63  34  34 CALM      30.51S
SAGUACHE       FAIR      73  37  27 NW9       30.29S
$$

COZ035-036-038>040-240400-
...NORTHERN COLORADO FRONT RANGE...

CITY           SKY/WX    TMP DP  RH WIND       PRES   REMARKS
DENVER INTL AP MOCLDY    75  51  43 SE21      30.13F
DMNS CITY PARK   N/A     78  46  31 SE6G15    30.11S
AURORA         MOCLDY    75  50  41 E14       30.16F
FRONT RANGE AP MOCLDY    73  55  53 E21G30    30.13F
ERIE MUNI ARPT FAIR      80  45  29 S9        30.09R
BOULDER MUN AP FAIR      82  41  23 S6        30.07S
CENTENNIAL     MOCLDY    77  45  32 SE9       30.18F
BROOMFIELD     MOCLDY    75  50  41 S8        30.13R
LONGMONT       FAIR      82  45  26 SE9       30.08R
$$

COZ041-046-047-076>085-087-088-240400-
...PIKES PEAK/PALMER DIVIDE AND SOUTHERN FOOTHILLS...

CITY           SKY/WX    TMP DP  RH WIND       PRES   REMARKS
COLO. SPRINGS  MOCLDY    70  52  52 N16       30.21R
A. F. ACADEMY  MOCLDY    72  48  43 N8        30.23R
SCHRIEVER AFB  NOT AVBL
ELLICOTT       FAIR     N/A N/A N/A E8        30.17R
FALCON         NOT AVBL
FORT CARSON    FAIR      69  52  54 N10       30.16R
LIMON          LGT RAIN  66  58  75 N17G30    30.21R
MONUMENT HILL  CLOUDY    66  50  55 N7        30.31R
TRINIDAD       NOT AVBL
$$

COZ042>045-048>051-090-091-240400-
...NORTHEAST COLORADO...

CITY           SKY/WX    TMP DP  RH WIND       PRES   REMARKS
GREELEY ARPT   FAIR      75  48  38 S14       30.08R
AKRON          LGT RAIN  69  58  67 W22G43    30.15R
BURLINGTON     FAIR      76  51  41 E8        30.00R
WRAY           NOT AVBL
STERLING       TSTM      77  55  47 NW18      30.02R
HOLYOKE        FAIR      79  54  41 W6        29.98S
FORT MORGAN    FAIR      77  47  34 SE9       30.06F
$$

COZ086-089-092>099-240400-
...SOUTHEAST COLORADO...

CITY           SKY/WX    TMP DP  RH WIND       PRES   REMARKS
PUEBLO         FAIR      83  49  30 NE21      30.03R
LA JUNTA       TSTM      67  63  87 N17       30.08F FOG
LAMAR          FAIR      84  60  44 SE6       29.92R
SPRINGFIELD      N/A     79  54  41 SW12      29.96R
$$



USA.gov is the U.S. government's official web portal to all federal, state and local government web resources and services.